Location: Mohawk View
(42.7837°N, 73.7885°W)
Time: 02:16:07
(UTC+00:00)

EO 1 Del DPAF - Pass Details

Date: 17 June 2021
Orbit: 506 x 507 km, 98.0° (Epoch: 02 August)

Event Time Altitude Azimuth Distance (km) Brightness Sun altitude
Rises 05:33:51 0° 11° (N) 2,620 8.3 -23.3°
Reaches altitude 10° 05:35:57 10° 9° (N) 1,730 7.0 -23.2°
Enters shadow 05:39:22 69° 328° (NNW) 547 3.3 -23.1°
